Regional Weather Roundup
Issued by NWS

Home | Current Version | Previous Version | Text Only | Print | Product List | Glossary Off
Versions: 1 2 3 4 5 6 7 8 9 10 11 12 13 14 15 16 17 18 19 20 21 22 23 24 25 26 27 28 29 30 31 32 33 34 35 36 37 38 39 40 41 42 43 44 45 46 47 48 49 50

000
ASUS45 KCYS 030010
RWRWY

WYOMING REGIONAL WEATHER ROUNDUP
NATIONAL WEATHER SERVICE CHEYENNE WY
600 PM MDT SAT MAY 02 2015

NOTE:  "FAIR" INDICATES FEW OR NO CLOUDS BELOW 12,000 FEET
WITH NO SIGNIFICANT WEATHER AND/OR OBSTRUCTIONS TO VISIBILITY.

WYZ001-030100-
YELLOWSTONE NATIONAL PARK

CITY           SKY/WX    TMP DP  RH WIND       PRES   REMARKS
LK YELLOWSTONE   N/A     55  19  24 W13G25    29.98R
6HR MIN TEMP:  55; 6HR MAX TEMP:  61;

W YELLOWSTONE  NOT AVBL

$$
WYZ002>013-054>058-071-098>099-030100-
NORTHERN WYOMING

CITY           SKY/WX    TMP DP  RH WIND       PRES   REMARKS
JACKSON        PTSUNNY   64  28  25 S18       29.89S
CODY           FAIR      73  19  13 W10       29.77F
GREYBULL       FAIR      78  13   8 SE5       29.71F
6HR MIN TEMP:  64; 6HR MAX TEMP:  78;

WORLAND        FAIR      77  17  10 SE6       29.73S
6HR MIN TEMP:  68; 6HR MAX TEMP:  79;

SHERIDAN       FAIR      71  28  20 NE10      29.75R
6HR MIN TEMP:  68; 6HR MAX TEMP:  76;

BUFFALO        FAIR      72  23  16 CALM      29.80S
6HR MIN TEMP:  66; 6HR MAX TEMP:  74;

GILLETTE       FAIR      74  25  16 N9        29.77S
6HR MIN TEMP:  71; 6HR MAX TEMP:  76;

HULETT         FAIR      73  19  13 NW10      29.78S
NEWCASTLE      FAIR      73  21  14 NW6       29.77S

$$
WYZ014>020-022>026-101>103-030100-
CENTRAL WYOMING

CITY           SKY/WX    TMP DP  RH WIND       PRES   REMARKS
BIG PINEY      FAIR      56  33  42 W22G28    30.00F
6HR MIN TEMP:  53; 6HR MAX TEMP:  71; 6HR PCP: TRACE;

PINEDALE       MOCLDY    54  27  35 SW16G26   29.99F
DUBOIS         FAIR      55  27  33 W22G35    29.92F
LANDER         FAIR      65  36  34 SW32G41   29.84R
6HR MIN TEMP:  64; 6HR MAX TEMP:  75;

RIVERTON       PTSUNNY   71  26  18 SW17      29.83R
6HR MIN TEMP:  70; 6HR MAX TEMP:  77;

CASPER         FAIR      72  25  17 SW15      29.82R
6HR MIN TEMP:  70; 6HR MAX TEMP:  76;

DOUGLAS        FAIR      72  30  21 W9        29.80S
6HR MIN TEMP:  72; 6HR MAX TEMP:  78;


$$
WYZ021-027>030-104>119-030100-
SOUTHERN WYOMING

CITY           SKY/WX    TMP DP  RH WIND       PRES   REMARKS
EVANSTON       PTSUNNY   69  27  20 W15G23    29.97F
6HR MIN TEMP:  63; 6HR MAX TEMP:  72;

KEMMERER       FAIR      64  23  20 W25G32    29.98F
FORT BRIDGER   CLEAR     68  25  19 W15       30.00F
ROCK SPRINGS   FAIR      60  32  34 S14       29.97F
6HR MIN TEMP:  54; 6HR MAX TEMP:  71; 6HR PCP: TRACE;

DIXON          CLOUDY    59  38  44 NW10      30.08R
RAWLINS        PTSUNNY   57  36  45 W18G29    30.01R
6HR MIN TEMP:  53; 6HR MAX TEMP:  73; 6HR PCP: TRACE;

SARATOGA       FAIR      61  32  33 W7        30.04R
LARAMIE        PTSUNNY   52  37  56 S23G37    30.03R
6HR MIN TEMP:  52; 6HR MAX TEMP:  67; 6HR PCP: TRACE;

CHEYENNE       CLOUDY    60  35  39 W16G24    29.94F
6HR MIN TEMP:  57; 6HR MAX TEMP:  73; 6HR PCP:  0.03;

TORRINGTON     FAIR      78  27  15 NW5       29.76S
6HR MIN TEMP:  77; 6HR MAX TEMP:  82;

PINE BLUFFS    RAIN      59  43  55 W17G37    29.92R

$$


USA.gov is the U.S. government's official web portal to all federal, state and local government web resources and services.